Year,Month,Day,Hour,Minute,Value (Times are PST for temperature in C)
2009,06,26,00,00,12.40
2009,06,26,00,01,12.40
2009,06,26,00,02,12.40
2009,06,26,00,03,12.40
2009,06,26,00,04,12.40
2009,06,26,00,05,12.40
2009,06,26,00,06,12.30
2009,06,26,00,07,12.30
2009,06,26,00,08,12.30
2009,06,26,00,09,12.30
2009,06,26,00,10,12.30
2009,06,26,00,11,12.30
2009,06,26,00,12,12.30
2009,06,26,00,13,12.30
2009,06,26,00,14,12.30
2009,06,26,00,15,12.20
2009,06,26,00,16,12.20
2009,06,26,00,17,12.20
2009,06,26,00,18,12.20
2009,06,26,00,19,12.20
2009,06,26,00,20,12.10
2009,06,26,00,21,12.10
2009,06,26,00,22,12.10
2009,06,26,00,23,12.10
2009,06,26,00,24,12.10
2009,06,26,00,25,12.00
2009,06,26,00,26,12.00
2009,06,26,00,27,11.90
2009,06,26,00,28,11.90
2009,06,26,00,29,11.90
2009,06,26,00,30,11.90
2009,06,26,00,31,11.90
2009,06,26,00,32,11.80
2009,06,26,00,33,11.80
2009,06,26,00,34,11.80
2009,06,26,00,35,11.80
2009,06,26,00,36,11.80
2009,06,26,00,37,11.70
2009,06,26,00,38,11.70
2009,06,26,00,39,11.70
2009,06,26,00,40,11.70
2009,06,26,00,41,11.70
2009,06,26,00,42,11.60
2009,06,26,00,43,11.60
2009,06,26,00,44,11.60
2009,06,26,00,45,11.60
2009,06,26,00,46,11.60
2009,06,26,00,47,11.50
2009,06,26,00,48,11.50
2009,06,26,00,49,11.50
2009,06,26,00,50,11.40
2009,06,26,00,51,11.40
2009,06,26,00,52,11.40
2009,06,26,00,53,11.40
2009,06,26,00,54,11.30
2009,06,26,00,55,11.30
2009,06,26,00,56,11.30
2009,06,26,00,57,11.30
2009,06,26,00,58,11.30
2009,06,26,00,59,11.30
2009,06,26,01,00,11.20
2009,06,26,01,01,11.20
2009,06,26,01,02,11.20
2009,06,26,01,03,11.20
2009,06,26,01,04,11.20
2009,06,26,01,05,11.10
2009,06,26,01,06,11.10
2009,06,26,01,07,11.10
2009,06,26,01,08,11.10
2009,06,26,01,09,11.10
2009,06,26,01,10,11.10
2009,06,26,01,11,11.10
2009,06,26,01,12,11.00
2009,06,26,01,13,11.00
2009,06,26,01,14,11.00
2009,06,26,01,15,10.90
2009,06,26,01,16,10.90
2009,06,26,01,17,10.90
2009,06,26,01,18,10.90
2009,06,26,01,19,10.90
2009,06,26,01,20,10.90
2009,06,26,01,21,10.90
2009,06,26,01,22,10.90
2009,06,26,01,23,10.90
2009,06,26,01,24,10.90
2009,06,26,01,25,10.90
2009,06,26,01,26,10.90
2009,06,26,01,27,10.90
2009,06,26,01,28,10.90
2009,06,26,01,29,10.90
2009,06,26,01,30,10.90
2009,06,26,01,31,10.90
2009,06,26,01,32,10.80
2009,06,26,01,33,10.80
2009,06,26,01,34,10.80
2009,06,26,01,35,10.80
2009,06,26,01,36,10.80
2009,06,26,01,37,10.90
2009,06,26,01,38,10.90
2009,06,26,01,39,10.80
2009,06,26,01,40,10.90
2009,06,26,01,41,10.90
2009,06,26,01,42,10.90
2009,06,26,01,43,10.90
2009,06,26,01,44,10.90
2009,06,26,01,45,10.90
2009,06,26,01,46,10.90
2009,06,26,01,47,10.90
2009,06,26,01,48,10.90
2009,06,26,01,49,10.90
2009,06,26,01,50,10.90
2009,06,26,01,51,10.90
2009,06,26,01,52,10.90
2009,06,26,01,53,10.80
2009,06,26,01,54,10.80
2009,06,26,01,55,10.80
2009,06,26,01,56,10.80
2009,06,26,01,57,10.80
2009,06,26,01,58,10.80
2009,06,26,01,59,10.80
2009,06,26,02,00,10.80
2009,06,26,02,01,10.80
2009,06,26,02,02,10.80
2009,06,26,02,03,10.80
2009,06,26,02,04,10.80
2009,06,26,02,05,10.80
2009,06,26,02,06,10.80
2009,06,26,02,07,10.80
2009,06,26,02,08,10.80
2009,06,26,02,09,10.80
2009,06,26,02,10,10.80
2009,06,26,02,11,10.80
2009,06,26,02,12,10.80
2009,06,26,02,13,10.80
2009,06,26,02,14,10.80
2009,06,26,02,15,10.80
2009,06,26,02,16,10.80
2009,06,26,02,17,10.80
2009,06,26,02,18,10.80
2009,06,26,02,19,10.80
2009,06,26,02,20,10.70
2009,06,26,02,21,10.70
2009,06,26,02,22,10.70
2009,06,26,02,23,10.70
2009,06,26,02,24,10.70
2009,06,26,02,25,10.70
2009,06,26,02,26,10.70
2009,06,26,02,27,10.70
2009,06,26,02,28,10.70
2009,06,26,02,29,10.70
2009,06,26,02,30,10.70
2009,06,26,02,31,10.70
2009,06,26,02,32,10.70
2009,06,26,02,33,10.70
2009,06,26,02,34,10.70
2009,06,26,02,35,10.70
2009,06,26,02,36,10.70
2009,06,26,02,37,10.70
2009,06,26,02,38,10.60
2009,06,26,02,39,10.60
2009,06,26,02,40,10.60
2009,06,26,02,41,10.60
2009,06,26,02,42,10.70
2009,06,26,02,43,10.60
2009,06,26,02,44,10.60
2009,06,26,02,45,10.60
2009,06,26,02,46,10.60
2009,06,26,02,47,10.60
2009,06,26,02,48,10.60
2009,06,26,02,49,10.60
2009,06,26,02,50,10.50
2009,06,26,02,51,10.50
2009,06,26,02,52,10.50
2009,06,26,02,53,10.50
2009,06,26,02,54,10.50
2009,06,26,02,55,10.50
2009,06,26,02,56,10.50
2009,06,26,02,57,10.50
2009,06,26,02,58,10.50
2009,06,26,02,59,10.50
2009,06,26,03,00,10.50
2009,06,26,03,01,10.50
2009,06,26,03,02,10.40
2009,06,26,03,03,10.40
2009,06,26,03,04,10.40
2009,06,26,03,05,10.40
2009,06,26,03,06,10.40
2009,06,26,03,07,10.40
2009,06,26,03,08,10.40
2009,06,26,03,09,10.40
2009,06,26,03,10,10.40
2009,06,26,03,11,10.40
2009,06,26,03,12,10.50
2009,06,26,03,13,10.50
2009,06,26,03,14,10.50
2009,06,26,03,15,10.50
2009,06,26,03,16,10.50
2009,06,26,03,17,10.50
2009,06,26,03,18,10.50
2009,06,26,03,19,10.50
2009,06,26,03,20,10.50
2009,06,26,03,21,10.50
2009,06,26,03,22,10.50
2009,06,26,03,23,10.50
2009,06,26,03,24,10.50
2009,06,26,03,25,10.40
2009,06,26,03,26,10.40
2009,06,26,03,27,10.40
2009,06,26,03,28,10.40
2009,06,26,03,29,10.40
2009,06,26,03,30,10.40
2009,06,26,03,31,10.40
2009,06,26,03,32,10.40
2009,06,26,03,33,10.50
2009,06,26,03,34,10.50
2009,06,26,03,35,10.50
2009,06,26,03,36,10.50
2009,06,26,03,37,10.50
2009,06,26,03,38,10.60
2009,06,26,03,39,10.60
2009,06,26,03,40,10.60
2009,06,26,03,41,10.60
2009,06,26,03,42,10.60
2009,06,26,03,43,10.60
2009,06,26,03,44,10.60
2009,06,26,03,45,10.60
2009,06,26,03,46,10.60
2009,06,26,03,47,10.60
2009,06,26,03,48,10.60
2009,06,26,03,49,10.70
2009,06,26,03,50,10.60
2009,06,26,03,51,10.60
2009,06,26,03,52,10.60
2009,06,26,03,53,10.70
2009,06,26,03,54,10.70
2009,06,26,03,55,10.70
2009,06,26,03,56,10.70
2009,06,26,03,57,10.70
2009,06,26,03,58,10.70
2009,06,26,03,59,10.70
2009,06,26,04,00,10.70
2009,06,26,04,01,10.70
2009,06,26,04,02,10.70
2009,06,26,04,03,10.70
2009,06,26,04,04,10.70
2009,06,26,04,05,10.60
2009,06,26,04,06,10.60
2009,06,26,04,07,10.60
2009,06,26,04,08,10.60
2009,06,26,04,09,10.60
2009,06,26,04,10,10.50
2009,06,26,04,11,10.50
2009,06,26,04,12,10.50
2009,06,26,04,13,10.50
2009,06,26,04,14,10.50
2009,06,26,04,15,10.40
2009,06,26,04,16,10.40
2009,06,26,04,17,10.40
2009,06,26,04,18,10.30
2009,06,26,04,19,10.30
2009,06,26,04,20,10.30
2009,06,26,04,21,10.30
2009,06,26,04,22,10.30
2009,06,26,04,23,10.20
2009,06,26,04,24,10.20
2009,06,26,04,25,10.20
2009,06,26,04,26,10.20
2009,06,26,04,27,10.10
2009,06,26,04,28,10.10
2009,06,26,04,29,10.10
2009,06,26,04,30,10.10
2009,06,26,04,31,10.00
2009,06,26,04,32,10.00
2009,06,26,04,33,9.90
2009,06,26,04,34,9.90
2009,06,26,04,35,9.90
2009,06,26,04,36,9.90
2009,06,26,04,37,9.90
2009,06,26,04,38,9.80
2009,06,26,04,39,9.80
2009,06,26,04,40,9.80
2009,06,26,04,41,9.80
2009,06,26,04,42,9.80
2009,06,26,04,43,9.80
2009,06,26,04,44,9.80
2009,06,26,04,45,9.80
2009,06,26,04,46,9.80
2009,06,26,04,47,9.80
2009,06,26,04,48,9.80
2009,06,26,04,49,9.80
2009,06,26,04,50,9.70
2009,06,26,04,51,9.70
2009,06,26,04,52,9.70
2009,06,26,04,53,9.70
2009,06,26,04,54,9.70
2009,06,26,04,55,9.70
2009,06,26,04,56,9.70
2009,06,26,04,57,9.70
2009,06,26,04,58,9.60
2009,06,26,04,59,9.60
2009,06,26,05,00,9.60
2009,06,26,05,01,9.60
2009,06,26,05,02,9.60
2009,06,26,05,03,9.60
2009,06,26,05,04,9.60
2009,06,26,05,05,9.60
2009,06,26,05,06,9.60
2009,06,26,05,07,9.60
2009,06,26,05,08,9.60
2009,06,26,05,09,9.60
2009,06,26,05,10,9.50
2009,06,26,05,11,9.50
2009,06,26,05,12,9.50
2009,06,26,05,13,9.50
2009,06,26,05,14,9.50
2009,06,26,05,15,9.60
2009,06,26,05,16,9.60
2009,06,26,05,17,9.60
2009,06,26,05,18,9.60
2009,06,26,05,19,9.60
2009,06,26,05,20,9.60
2009,06,26,05,21,9.60
2009,06,26,05,22,9.60
2009,06,26,05,23,9.60
2009,06,26,05,24,9.60
2009,06,26,05,25,9.60
2009,06,26,05,26,9.60
2009,06,26,05,27,9.60
2009,06,26,05,28,9.60
2009,06,26,05,29,9.60
2009,06,26,05,30,9.60
2009,06,26,05,31,9.60
2009,06,26,05,32,9.60
2009,06,26,05,33,9.60
2009,06,26,05,34,9.60
2009,06,26,05,35,9.60
2009,06,26,05,36,9.60
2009,06,26,05,37,9.60
2009,06,26,05,38,9.60
2009,06,26,05,39,9.60
2009,06,26,05,40,9.60
2009,06,26,05,41,9.60
2009,06,26,05,42,9.60
2009,06,26,05,43,9.60
2009,06,26,05,44,9.60
2009,06,26,05,45,9.60
2009,06,26,05,46,9.60
2009,06,26,05,47,9.60
2009,06,26,05,48,9.60
2009,06,26,05,49,9.60
2009,06,26,05,50,9.60
2009,06,26,05,51,9.60
2009,06,26,05,52,9.60
2009,06,26,05,53,9.60
2009,06,26,05,54,9.60
2009,06,26,05,55,9.60
2009,06,26,05,56,9.60
2009,06,26,05,57,9.60
2009,06,26,05,58,9.60
2009,06,26,05,59,9.60
2009,06,26,06,00,9.60
2009,06,26,06,01,9.60
2009,06,26,06,02,9.60
2009,06,26,06,03,9.70
2009,06,26,06,04,9.70
2009,06,26,06,05,9.70
2009,06,26,06,06,9.70
2009,06,26,06,07,9.70
2009,06,26,06,08,9.70
2009,06,26,06,09,9.70
2009,06,26,06,10,9.80
2009,06,26,06,11,9.80
2009,06,26,06,12,9.80
2009,06,26,06,13,9.80
2009,06,26,06,14,9.80
2009,06,26,06,15,9.80
2009,06,26,06,16,9.80
2009,06,26,06,17,9.80
2009,06,26,06,18,9.90
2009,06,26,06,19,10.00
2009,06,26,06,20,10.00
2009,06,26,06,21,10.00
2009,06,26,06,22,10.10
2009,06,26,06,23,10.10
2009,06,26,06,24,10.10
2009,06,26,06,25,10.20
2009,06,26,06,26,10.20
2009,06,26,06,27,10.20
2009,06,26,06,28,10.20
2009,06,26,06,29,10.20
2009,06,26,06,30,10.20
2009,06,26,06,31,10.10
2009,06,26,06,32,10.10
2009,06,26,06,33,10.10
2009,06,26,06,34,10.10
2009,06,26,06,35,10.10
2009,06,26,06,36,10.10
2009,06,26,06,37,10.10
2009,06,26,06,38,10.10
2009,06,26,06,39,10.10
2009,06,26,06,40,10.10
2009,06,26,06,41,10.10
2009,06,26,06,42,10.10
2009,06,26,06,43,10.20
2009,06,26,06,44,10.20
2009,06,26,06,45,10.30
2009,06,26,06,46,10.30
2009,06,26,06,47,10.40
2009,06,26,06,48,10.50
2009,06,26,06,49,10.60
2009,06,26,06,50,10.60
2009,06,26,06,51,10.70
2009,06,26,06,52,10.70
2009,06,26,06,53,10.70
2009,06,26,06,54,10.80
2009,06,26,06,55,10.80
2009,06,26,06,56,10.80
2009,06,26,06,57,10.90
2009,06,26,06,58,10.90
2009,06,26,06,59,10.90
2009,06,26,07,00,10.90
2009,06,26,07,01,10.90
2009,06,26,07,02,10.90
2009,06,26,07,03,11.00
2009,06,26,07,04,11.00
2009,06,26,07,05,11.10
2009,06,26,07,06,11.10
2009,06,26,07,07,11.20
2009,06,26,07,08,11.20
2009,06,26,07,09,11.20
2009,06,26,07,10,11.20
2009,06,26,07,11,11.30
2009,06,26,07,12,11.30
2009,06,26,07,13,11.30
2009,06,26,07,14,11.40
2009,06,26,07,15,11.40
2009,06,26,07,16,11.40
2009,06,26,07,17,11.40
2009,06,26,07,18,11.50
2009,06,26,07,19,11.50
2009,06,26,07,20,11.50
2009,06,26,07,21,11.60
2009,06,26,07,22,11.60
2009,06,26,07,23,11.70
2009,06,26,07,24,11.70
2009,06,26,07,25,11.70
2009,06,26,07,26,11.70
2009,06,26,07,27,11.80
2009,06,26,07,28,11.80
2009,06,26,07,29,11.80
2009,06,26,07,30,11.90
2009,06,26,07,31,11.90
2009,06,26,07,32,12.00
2009,06,26,07,33,12.00
2009,06,26,07,34,12.10
2009,06,26,07,35,12.10
2009,06,26,07,36,12.10
2009,06,26,07,37,12.20
2009,06,26,07,38,12.20
2009,06,26,07,39,12.20
2009,06,26,07,40,12.20
2009,06,26,07,41,12.20
2009,06,26,07,42,12.30
2009,06,26,07,43,12.30
2009,06,26,07,44,12.30
2009,06,26,07,45,12.30
2009,06,26,07,46,12.40
2009,06,26,07,47,12.40
2009,06,26,07,48,12.40
2009,06,26,07,49,12.50
2009,06,26,07,50,12.50
2009,06,26,07,51,12.50
2009,06,26,07,52,12.60
2009,06,26,07,53,12.60
2009,06,26,07,54,12.60
2009,06,26,07,55,12.60
2009,06,26,07,56,12.60
2009,06,26,07,57,12.60
2009,06,26,07,58,12.60
2009,06,26,07,59,12.60
2009,06,26,08,00,12.70
2009,06,26,08,01,12.70
2009,06,26,08,02,12.70
2009,06,26,08,03,12.70
2009,06,26,08,04,12.70
2009,06,26,08,05,12.70
2009,06,26,08,06,12.70
2009,06,26,08,07,12.70
2009,06,26,08,08,12.60
2009,06,26,08,09,12.60
2009,06,26,08,10,12.60
2009,06,26,08,11,12.60
2009,06,26,08,12,12.60
2009,06,26,08,13,12.60
2009,06,26,08,14,12.60
2009,06,26,08,15,12.60
2009,06,26,08,16,12.60
2009,06,26,08,17,12.60
2009,06,26,08,18,12.60
2009,06,26,08,19,12.70
2009,06,26,08,20,12.70
2009,06,26,08,21,12.80
2009,06,26,08,22,12.80
2009,06,26,08,23,12.80
2009,06,26,08,24,12.80
2009,06,26,08,25,12.90
2009,06,26,08,26,12.90
2009,06,26,08,27,13.00
2009,06,26,08,28,13.00
2009,06,26,08,29,13.00
2009,06,26,08,30,13.10
2009,06,26,08,31,13.20
2009,06,26,08,32,13.20
2009,06,26,08,33,13.20
2009,06,26,08,34,13.30
2009,06,26,08,35,13.30
2009,06,26,08,36,13.30
2009,06,26,08,37,13.30
2009,06,26,08,38,13.30
2009,06,26,08,39,13.30
2009,06,26,08,40,13.30
2009,06,26,08,41,13.40
2009,06,26,08,42,13.40
2009,06,26,08,43,13.50
2009,06,26,08,44,13.50
2009,06,26,08,45,13.60
2009,06,26,08,46,13.60
2009,06,26,08,47,13.70
2009,06,26,08,48,13.80
2009,06,26,08,49,13.80
2009,06,26,08,50,13.90
2009,06,26,08,51,13.90
2009,06,26,08,52,14.00
2009,06,26,08,53,14.10
2009,06,26,08,54,14.10
2009,06,26,08,55,14.10
2009,06,26,08,56,14.10
2009,06,26,08,57,14.10
2009,06,26,08,58,14.00
2009,06,26,08,59,14.00
2009,06,26,09,00,14.10
2009,06,26,09,01,14.10
2009,06,26,09,02,14.10
2009,06,26,09,03,14.10
2009,06,26,09,04,14.20
2009,06,26,09,05,14.30
2009,06,26,09,06,14.40
2009,06,26,09,07,14.40
2009,06,26,09,08,14.50
2009,06,26,09,09,14.60
2009,06,26,09,10,14.60
2009,06,26,09,11,14.60
2009,06,26,09,12,14.60
2009,06,26,09,13,14.70
2009,06,26,09,14,14.70
2009,06,26,09,15,14.70
2009,06,26,09,16,14.80
2009,06,26,09,17,14.90
2009,06,26,09,18,15.00
2009,06,26,09,19,15.00
2009,06,26,09,20,15.00
2009,06,26,09,21,15.00
2009,06,26,09,22,15.00
2009,06,26,09,23,14.90
2009,06,26,09,24,14.90
2009,06,26,09,25,14.80
2009,06,26,09,26,14.90
2009,06,26,09,27,15.00
2009,06,26,09,28,15.00
2009,06,26,09,29,15.00
2009,06,26,09,30,15.00
2009,06,26,09,31,15.00
2009,06,26,09,32,15.00
2009,06,26,09,33,15.00
2009,06,26,09,34,15.00
2009,06,26,09,35,15.00
2009,06,26,09,36,15.00
2009,06,26,09,37,15.00
2009,06,26,09,38,15.00
2009,06,26,09,39,15.00
2009,06,26,09,40,15.10
2009,06,26,09,41,15.20
2009,06,26,09,42,15.20
2009,06,26,09,43,15.20
2009,06,26,09,44,15.20
2009,06,26,09,45,15.20
2009,06,26,09,46,15.20
2009,06,26,09,47,15.20
2009,06,26,09,48,15.20
2009,06,26,09,49,15.10
2009,06,26,09,50,15.10
2009,06,26,09,51,15.00
2009,06,26,09,52,15.00
2009,06,26,09,53,15.00
2009,06,26,09,54,15.00
2009,06,26,09,55,15.00
2009,06,26,09,56,15.00
2009,06,26,09,57,15.00
2009,06,26,09,58,15.00
2009,06,26,09,59,15.00
2009,06,26,10,00,15.10
2009,06,26,10,01,15.20
2009,06,26,10,02,15.30
2009,06,26,10,03,15.40
2009,06,26,10,04,15.40
2009,06,26,10,05,15.50
2009,06,26,10,06,15.50
2009,06,26,10,07,15.50
2009,06,26,10,08,15.50
2009,06,26,10,09,15.40
2009,06,26,10,10,15.40
2009,06,26,10,11,15.50
2009,06,26,10,12,15.40
2009,06,26,10,13,15.40
2009,06,26,10,14,15.40
2009,06,26,10,15,15.40
2009,06,26,10,16,15.40
2009,06,26,10,17,15.50
2009,06,26,10,18,15.50
2009,06,26,10,19,15.60
2009,06,26,10,20,15.60
2009,06,26,10,21,15.60
2009,06,26,10,22,15.60
2009,06,26,10,23,15.60
2009,06,26,10,24,15.60
2009,06,26,10,25,15.60
2009,06,26,10,26,15.60
2009,06,26,10,27,15.60
2009,06,26,10,28,15.60
2009,06,26,10,29,15.70
2009,06,26,10,30,15.80
2009,06,26,10,31,15.90
2009,06,26,10,32,15.90
2009,06,26,10,33,16.00
2009,06,26,10,34,16.00
2009,06,26,10,35,16.00
2009,06,26,10,36,16.10
2009,06,26,10,37,16.20
2009,06,26,10,38,16.20
2009,06,26,10,39,16.20
2009,06,26,10,40,16.10
2009,06,26,10,41,16.10
2009,06,26,10,42,16.00
2009,06,26,10,43,15.90
2009,06,26,10,44,15.90
2009,06,26,10,45,15.90
2009,06,26,10,46,15.80
2009,06,26,10,47,15.90
2009,06,26,10,48,15.90
2009,06,26,10,49,16.10
2009,06,26,10,50,16.00
2009,06,26,10,51,16.00
2009,06,26,10,52,16.10
2009,06,26,10,53,16.20
2009,06,26,10,54,16.20
2009,06,26,10,55,16.30
2009,06,26,10,56,16.40
2009,06,26,10,57,16.50
2009,06,26,10,58,16.50
2009,06,26,10,59,16.60
2009,06,26,11,00,16.70
2009,06,26,11,01,16.70
2009,06,26,11,02,16.80
2009,06,26,11,03,16.90
2009,06,26,11,04,17.00
2009,06,26,11,05,17.10
2009,06,26,11,06,17.20
2009,06,26,11,07,17.20
2009,06,26,11,08,17.20
2009,06,26,11,09,17.20
2009,06,26,11,10,17.20
2009,06,26,11,11,17.10
2009,06,26,11,12,17.00
2009,06,26,11,13,17.00
2009,06,26,11,14,17.00
2009,06,26,11,15,17.00
2009,06,26,11,16,17.10
2009,06,26,11,17,17.20
2009,06,26,11,18,17.20
2009,06,26,11,19,17.20
2009,06,26,11,20,17.20
2009,06,26,11,21,17.10
2009,06,26,11,22,17.10
2009,06,26,11,23,17.20
2009,06,26,11,24,17.20
2009,06,26,11,25,17.30
2009,06,26,11,26,17.20
2009,06,26,11,27,17.30
2009,06,26,11,28,17.30
2009,06,26,11,29,17.30
2009,06,26,11,30,17.30
2009,06,26,11,31,17.40
2009,06,26,11,32,17.40
2009,06,26,11,33,17.40
2009,06,26,11,34,17.30
2009,06,26,11,35,17.30
2009,06,26,11,36,17.30
2009,06,26,11,37,17.30
2009,06,26,11,38,17.40
2009,06,26,11,39,17.40
2009,06,26,11,40,17.40
2009,06,26,11,41,17.40
2009,06,26,11,42,17.40
2009,06,26,11,43,17.40
2009,06,26,11,44,17.40
2009,06,26,11,45,17.40
2009,06,26,11,46,17.40
2009,06,26,11,47,17.50
2009,06,26,11,48,17.50
2009,06,26,11,49,17.60
2009,06,26,11,50,17.70
2009,06,26,11,51,17.80
2009,06,26,11,52,17.80
2009,06,26,11,53,17.90
2009,06,26,11,54,17.80
2009,06,26,11,55,17.80
2009,06,26,11,56,17.90
2009,06,26,11,57,17.90
2009,06,26,11,58,18.00
2009,06,26,11,59,18.00
2009,06,26,12,00,18.00
2009,06,26,12,01,17.90
2009,06,26,12,02,17.90
2009,06,26,12,03,17.80
2009,06,26,12,04,17.80
2009,06,26,12,05,17.80
2009,06,26,12,06,17.80
2009,06,26,12,07,17.70
2009,06,26,12,08,17.60
2009,06,26,12,09,17.40
2009,06,26,12,10,17.20
2009,06,26,12,11,17.10
2009,06,26,12,12,17.00
2009,06,26,12,13,17.00
2009,06,26,12,14,17.00
2009,06,26,12,15,17.00
2009,06,26,12,16,16.90
2009,06,26,12,17,16.90
2009,06,26,12,18,16.80
2009,06,26,12,19,16.80
2009,06,26,12,20,16.90
2009,06,26,12,21,16.90
2009,06,26,12,22,17.00
2009,06,26,12,23,17.10
2009,06,26,12,24,17.30
2009,06,26,12,25,17.40
2009,06,26,12,26,17.60
2009,06,26,12,27,17.70
2009,06,26,12,28,17.70
2009,06,26,12,29,17.80
2009,06,26,12,30,17.90
2009,06,26,12,31,18.10
2009,06,26,12,32,18.20
2009,06,26,12,33,18.40
2009,06,26,12,34,18.40
2009,06,26,12,35,18.40
2009,06,26,12,36,18.30
2009,06,26,12,37,18.20
2009,06,26,12,38,18.10
2009,06,26,12,39,18.10
2009,06,26,12,40,18.00
2009,06,26,12,41,17.90
2009,06,26,12,42,17.80
2009,06,26,12,43,17.70
2009,06,26,12,44,17.70
2009,06,26,12,45,17.70
2009,06,26,12,46,17.80
2009,06,26,12,47,17.70
2009,06,26,12,48,17.60
2009,06,26,12,49,17.50
2009,06,26,12,50,17.20
2009,06,26,12,51,17.00
2009,06,26,12,52,16.90
2009,06,26,12,53,16.80
2009,06,26,12,54,16.80
2009,06,26,12,55,16.80
2009,06,26,12,56,16.80
2009,06,26,12,57,16.90
2009,06,26,12,58,17.00
2009,06,26,12,59,17.00
2009,06,26,13,00,17.10
2009,06,26,13,01,17.30
2009,06,26,13,02,17.50
2009,06,26,13,03,17.70
2009,06,26,13,04,17.80
2009,06,26,13,05,17.90
2009,06,26,13,06,18.00
2009,06,26,13,07,18.10
2009,06,26,13,08,18.00
2009,06,26,13,09,17.90
2009,06,26,13,10,17.70
2009,06,26,13,11,17.40
2009,06,26,13,12,17.30
2009,06,26,13,13,17.30
2009,06,26,13,14,17.30
2009,06,26,13,15,17.30
2009,06,26,13,16,17.30
2009,06,26,13,17,17.30
2009,06,26,13,18,17.40
2009,06,26,13,19,17.40
2009,06,26,13,20,17.50
2009,06,26,13,21,17.60
2009,06,26,13,22,17.70
2009,06,26,13,23,17.80
2009,06,26,13,24,17.80
2009,06,26,13,25,17.90
2009,06,26,13,26,17.90
2009,06,26,13,27,17.70
2009,06,26,13,28,17.40
2009,06,26,13,29,17.30
2009,06,26,13,30,17.10
2009,06,26,13,31,17.00
2009,06,26,13,32,17.00
2009,06,26,13,33,17.00
2009,06,26,13,34,17.10
2009,06,26,13,35,17.20
2009,06,26,13,36,17.20
2009,06,26,13,37,17.20
2009,06,26,13,38,17.20
2009,06,26,13,39,17.30
2009,06,26,13,40,17.40
2009,06,26,13,41,17.70
2009,06,26,13,42,17.90
2009,06,26,13,43,18.00
2009,06,26,13,44,18.10
2009,06,26,13,45,18.20
2009,06,26,13,46,18.20
2009,06,26,13,47,18.30
2009,06,26,13,48,18.40
2009,06,26,13,49,18.40
2009,06,26,13,50,18.40
2009,06,26,13,51,18.50
2009,06,26,13,52,18.50
2009,06,26,13,53,18.50
2009,06,26,13,54,18.40
2009,06,26,13,55,18.40
2009,06,26,13,56,18.40
2009,06,26,13,57,18.10
2009,06,26,13,58,17.80
2009,06,26,13,59,17.70
2009,06,26,14,00,17.60
2009,06,26,14,01,17.60
2009,06,26,14,02,17.60
2009,06,26,14,03,17.70
2009,06,26,14,04,17.70
2009,06,26,14,05,17.80
2009,06,26,14,06,17.90
2009,06,26,14,07,18.00
2009,06,26,14,08,18.10
2009,06,26,14,09,18.30
2009,06,26,14,10,18.40
2009,06,26,14,11,18.50
2009,06,26,14,12,18.60
2009,06,26,14,13,18.60
2009,06,26,14,14,18.50
2009,06,26,14,15,18.50
2009,06,26,14,16,18.60
2009,06,26,14,17,18.50
2009,06,26,14,18,18.50
2009,06,26,14,19,18.20
2009,06,26,14,20,17.90
2009,06,26,14,21,17.70
2009,06,26,14,22,17.60
2009,06,26,14,23,17.50
2009,06,26,14,24,17.40
2009,06,26,14,25,17.30
2009,06,26,14,26,17.30
2009,06,26,14,27,17.30
2009,06,26,14,28,17.30
2009,06,26,14,29,17.40
2009,06,26,14,30,17.40
2009,06,26,14,31,17.50
2009,06,26,14,32,17.50
2009,06,26,14,33,17.60
2009,06,26,14,34,17.60
2009,06,26,14,35,17.60
2009,06,26,14,36,17.60
2009,06,26,14,37,17.70
2009,06,26,14,38,17.80
2009,06,26,14,39,17.80
2009,06,26,14,40,17.80
2009,06,26,14,41,17.90
2009,06,26,14,42,17.90
2009,06,26,14,43,17.90
2009,06,26,14,44,17.90
2009,06,26,14,45,17.90
2009,06,26,14,46,17.90
2009,06,26,14,47,17.80
2009,06,26,14,48,17.80
2009,06,26,14,49,17.90
2009,06,26,14,50,17.90
2009,06,26,14,51,18.10
2009,06,26,14,52,18.20
2009,06,26,14,53,18.30
2009,06,26,14,54,18.40
2009,06,26,14,55,18.40
2009,06,26,14,56,18.40
2009,06,26,14,57,18.30
2009,06,26,14,58,18.30
2009,06,26,14,59,18.30
2009,06,26,15,00,18.30
2009,06,26,15,01,18.40
2009,06,26,15,02,18.40
2009,06,26,15,03,18.50
2009,06,26,15,04,18.70
2009,06,26,15,05,18.80
2009,06,26,15,06,18.90
2009,06,26,15,07,18.90
2009,06,26,15,08,18.90
2009,06,26,15,09,18.70
2009,06,26,15,10,18.50
2009,06,26,15,11,18.40
2009,06,26,15,12,18.30
2009,06,26,15,13,18.20
2009,06,26,15,14,18.10
2009,06,26,15,15,18.00
2009,06,26,15,16,17.90
2009,06,26,15,17,17.90
2009,06,26,15,18,18.00
2009,06,26,15,19,18.10
2009,06,26,15,20,18.20
2009,06,26,15,21,18.30
2009,06,26,15,22,18.50
2009,06,26,15,23,18.70
2009,06,26,15,24,18.70
2009,06,26,15,25,18.70
2009,06,26,15,26,18.60
2009,06,26,15,27,18.50
2009,06,26,15,28,18.30
2009,06,26,15,29,18.10
2009,06,26,15,30,18.00
2009,06,26,15,31,18.00
2009,06,26,15,32,18.00
2009,06,26,15,33,18.00
2009,06,26,15,34,18.10
2009,06,26,15,35,18.20
2009,06,26,15,36,18.30
2009,06,26,15,37,18.30
2009,06,26,15,38,18.30
2009,06,26,15,39,18.40
2009,06,26,15,40,18.60
2009,06,26,15,41,18.70
2009,06,26,15,42,18.60
2009,06,26,15,43,18.70
2009,06,26,15,44,18.80
2009,06,26,15,45,18.70
2009,06,26,15,46,18.60
2009,06,26,15,47,18.60
2009,06,26,15,48,18.60
2009,06,26,15,49,18.60
2009,06,26,15,50,18.60
2009,06,26,15,51,18.60
2009,06,26,15,52,18.80
2009,06,26,15,53,18.90
2009,06,26,15,54,19.00
2009,06,26,15,55,19.10
2009,06,26,15,56,19.20
2009,06,26,15,57,19.20
2009,06,26,15,58,19.30
2009,06,26,15,59,19.30
2009,06,26,16,00,19.30
2009,06,26,16,01,19.40
2009,06,26,16,02,19.40
2009,06,26,16,03,19.30
2009,06,26,16,04,19.30
2009,06,26,16,05,19.40
2009,06,26,16,06,19.40
2009,06,26,16,07,19.40
2009,06,26,16,08,19.20
2009,06,26,16,09,19.10
2009,06,26,16,10,19.10
2009,06,26,16,11,19.10
2009,06,26,16,12,19.20
2009,06,26,16,13,19.20
2009,06,26,16,14,19.20
2009,06,26,16,15,19.00
2009,06,26,16,16,18.80
2009,06,26,16,17,18.80
2009,06,26,16,18,18.90
2009,06,26,16,19,18.90
2009,06,26,16,20,18.80
2009,06,26,16,21,18.80
2009,06,26,16,22,18.80
2009,06,26,16,23,18.80
2009,06,26,16,24,18.90
2009,06,26,16,25,18.90
2009,06,26,16,26,19.00
2009,06,26,16,27,19.00
2009,06,26,16,28,19.10
2009,06,26,16,29,19.10
2009,06,26,16,30,18.90
2009,06,26,16,31,18.90
2009,06,26,16,32,18.80
2009,06,26,16,33,18.80
2009,06,26,16,34,18.80
2009,06,26,16,35,18.90
2009,06,26,16,36,18.90
2009,06,26,16,37,19.10
2009,06,26,16,38,19.20
2009,06,26,16,39,19.20
2009,06,26,16,40,19.20
2009,06,26,16,41,19.20
2009,06,26,16,42,19.10
2009,06,26,16,43,19.00
2009,06,26,16,44,19.00
2009,06,26,16,45,18.90
2009,06,26,16,46,18.90
2009,06,26,16,47,18.80
2009,06,26,16,48,18.80
2009,06,26,16,49,18.90
2009,06,26,16,50,18.90
2009,06,26,16,51,19.00
2009,06,26,16,52,19.00
2009,06,26,16,53,19.00
2009,06,26,16,54,19.10
2009,06,26,16,55,19.10
2009,06,26,16,56,19.10
2009,06,26,16,57,19.10
2009,06,26,16,58,19.10
2009,06,26,16,59,19.20
2009,06,26,17,00,19.10
2009,06,26,17,01,19.00
2009,06,26,17,02,18.90
2009,06,26,17,03,18.80
2009,06,26,17,04,18.70
2009,06,26,17,05,18.60
2009,06,26,17,06,18.50
2009,06,26,17,07,18.50
2009,06,26,17,08,18.50
2009,06,26,17,09,18.50
2009,06,26,17,10,18.50
2009,06,26,17,11,18.40
2009,06,26,17,12,18.30
2009,06,26,17,13,18.30
2009,06,26,17,14,18.30
2009,06,26,17,15,18.30
2009,06,26,17,16,18.30
2009,06,26,17,17,18.40
2009,06,26,17,18,18.30
2009,06,26,17,19,18.30
2009,06,26,17,20,18.30
2009,06,26,17,21,18.30
2009,06,26,17,22,18.20
2009,06,26,17,23,18.20
2009,06,26,17,24,18.30